GFSFLT1_con_3kmhel_069.txt.gz
Helicity
76 63 61 61 55 64 120 95 55 117 133 182 174 93 94 45 95 3 68 40 55 93 81 54 54 80 28 31 72 47 42 35
91 88 71 55 62 89 105 121 25 97 121 128 223 172 163 48 73 36 4 11 36 92 97 53 102 55 61 33 72 48 71 65
102 101 97 56 62 83 92 102 78 40 53 101 143 132 129 137 103 43 15 79 58 81 102 78 109 64 104 101 73 91 84 72
109 107 103 84 51 65 88 108 116 89 152 176 196 239 216 195 166 117 112 166 65 76 107 130 137 110 113 54 75 56 73 79
137 110 102 103 57 45 88 96 120 85 146 140 133 133 202 160 172 222 223 228 172 158 135 128 98 36 18 47 61 62 76 57
159 145 112 90 79 44 60 77 111 106 115 137 149 127 84 111 142 358 261 215 190 146 172 178 20 46 64 53 63 72 62 83
96 120 112 121 89 72 60 60 55 82 87 80 86 87 78 16 95 139 115 77 -18 -79 183 25 83 75 70 54 39 51 61 90
106 132 163 158 145 120 92 88 76 79 65 84 63 44 20 44 98 107 63 47 31 46 56 56 69 65 67 51 42 56 82 104
92 122 146 158 168 147 130 117 99 96 91 69 46 23 -16 -40 -22 2 33 78 44 70 -43 20 27 25 -2 -5 44 62 69 111
54 79 93 121 130 190 216 169 128 117 102 86 72 31 -1 -34 -53 -41 -50 -36 -26 1 -23 -51 -49 -98 -89 -55 20 53 65 76
41 71 70 73 91 150 184 190 196 165 160 130 121 114 79 35 -10 -28 -42 -87 -106 -127 -137 -71 -40 -24 -29 -15 21 44 41 77
37 57 50 34 76 113 185 201 209 214 217 204 184 183 174 148 98 49 45 44 17 1 -20 -29 -39 -20 9 23 9 18 38 80
14 30 42 50 65 105 159 192 240 298 329 304 213 191 220 230 182 176 160 166 166 153 129 96 82 75 126 114 70 61 103 100
28 46 58 59 72 88 103 168 207 289 320 337 307 254 215 200 178 132 99 90 108 82 126 115 122 156 204 204 150 149 232 158
42 49 57 76 58 67 101 143 194 265 278 268 290 322 332 259 185 165 152 132 170 156 196 90 98 148 185 220 189 250 177 167
58 63 55 50 60 75 84 90 158 222 232 211 211 235 268 248 211 166 130 110 147 178 221 104 -91 39 196 234 234 170 205 218
61 62 54 51 74 84 127 125 167 201 164 137 107 148 184 193 203 197 156 116 96 123 157 63 84 170 233 240 257 227 240 308
67 64 73 78 96 130 132 178 185 192 150 111 111 129 140 125 109 123 135 114 102 121 139 147 170 183 190 208 253 251 313 344
55 53 49 77 88 112 143 160 203 189 152 134 142 150 130 125 134 126 105 87 113 159 171 174 217 246 230 292 341 374 432 462

GFSFLT1_con_3kmhel_072.txt.gz
Helicity
78 38 48 55 73 74 94 133 84 77 119 153 131 130 63 121 140 90 166 146 121 38 50 80 87 55 34 19 25 18 36 60
93 64 60 55 61 68 102 134 92 133 93 130 123 76 81 120 97 176 120 174 -24 -19 -19 41 61 35 6 44 41 31 59 52
114 84 61 64 63 59 84 110 85 49 105 89 105 51 145 125 187 151 101 -31 -69 -0 83 63 32 63 63 57 69 71 76 76
121 98 66 63 57 45 53 91 76 87 77 53 167 241 207 231 200 146 27 -7 -9 -23 113 96 106 87 151 64 82 84 45 55
106 112 78 57 64 37 27 69 72 74 120 139 105 98 198 126 135 176 150 79 110 41 133 116 113 85 82 52 99 98 -1 20
99 108 81 64 65 61 26 35 72 86 101 113 103 56 18 163 162 126 65 215 209 134 89 60 65 142 118 98 127 117 -10 51
51 73 95 93 74 64 29 35 44 78 101 116 113 95 107 99 117 156 174 150 257 322 189 82 102 146 83 88 110 -12 35 42
22 86 120 118 115 84 40 40 49 70 98 121 108 82 120 130 168 69 116 135 190 280 150 155 176 178 91 112 11 8 60 50
19 66 94 110 88 98 75 55 55 69 59 77 97 82 83 62 87 72 82 164 167 159 54 69 34 20 11 -52 -53 42 48 28
18 60 91 70 89 83 84 79 68 83 76 60 72 78 79 92 105 58 58 75 84 83 89 45 10 26 5 1 -35 -18 8 15
34 61 77 92 60 47 44 53 82 89 82 84 74 80 93 80 77 108 110 79 77 98 106 85 52 34 6 -53 -77 -44 -1 55
24 42 59 72 84 65 42 47 66 99 96 105 104 93 84 94 122 128 125 109 129 150 139 113 80 40 15 -12 -12 -7 -19 54
31 17 54 75 72 88 78 59 65 85 107 118 97 107 105 105 105 104 136 135 114 128 104 89 79 95 133 111 82 93 105 83
50 20 37 43 58 72 89 95 94 122 149 156 159 134 128 137 111 121 109 99 91 84 62 56 47 58 61 129 165 112 99 146
50 51 16 33 45 58 92 100 110 135 157 178 182 186 180 142 119 118 134 125 119 125 123 117 98 93 145 187 274 243 202 250
30 46 40 31 35 49 63 52 81 96 103 126 145 142 137 120 102 101 107 115 125 124 115 112 127 185 287 260 237 108 224 265
43 43 31 56 52 51 53 52 78 100 90 83 81 80 81 92 107 121 111 122 121 124 125 102 134 196 257 223 114 88 202 273
160 97 89 57 26 61 61 49 95 103 92 83 80 68 54 43 52 88 112 124 152 160 132 76 74 89 178 148 116 133 228 267
83 93 84 89 70 45 66 65 68 81 80 105 114 106 96 85 77 77 96 110 115 151 150 121 124 173 157 99 140 226 355 344

GFSFLT1_con_3kmhel_075.txt.gz
Helicity
77 67 74 100 106 125 140 115 149 129 148 142 195 224 176 131 124 206 202 78 28 92 102 141 130 105 81 58 56 45 34 19
101 92 99 113 127 101 134 132 135 71 73 149 149 177 164 99 57 71 61 2 14 55 30 104 74 78 81 100 80 59 48 22
99 106 106 96 116 94 123 102 101 96 56 81 135 92 131 119 83 92 -13 64 38 103 113 79 134 104 106 95 70 76 46 28
92 108 107 95 95 112 84 94 82 68 47 42 41 106 111 127 105 160 155 85 58 14 36 -11 112 112 98 58 69 51 66 47
82 91 107 96 92 94 87 79 79 67 82 112 153 115 224 138 140 158 268 225 201 100 35 28 79 124 111 93 83 91 83 110
63 84 83 101 117 89 70 86 86 73 93 144 169 183 125 211 179 193 276 219 178 168 -103 54 83 122 139 127 83 130 98 139
56 67 66 131 127 107 63 94 55 83 103 131 127 172 161 210 219 167 247 240 234 121 17 58 107 149 130 107 69 68 136 119
58 87 92 135 153 110 72 77 68 107 82 101 110 138 204 209 211 186 211 190 167 196 170 157 112 144 49 52 90 114 132 184
53 66 77 111 145 116 74 54 48 108 86 76 84 95 111 161 185 212 172 177 167 279 201 211 214 236 27 -31 93 57 43 14
64 59 85 98 119 125 99 56 44 60 83 76 64 64 99 111 111 149 133 137 159 215 277 260 143 262 74 75 67 120 85 43
35 49 75 91 112 105 90 58 53 55 60 61 66 61 59 77 69 90 120 138 166 224 223 219 207 227 88 87 35 22 16 35
29 26 51 83 102 117 96 64 61 71 85 74 65 84 68 67 90 93 115 124 149 184 219 229 233 210 96 27 21 25 28 52
34 27 28 70 99 106 107 75 68 87 116 122 99 86 98 98 88 110 125 130 145 148 203 196 192 170 133 76 91 127 105 79
31 14 25 36 58 79 85 89 76 92 114 136 136 140 147 154 153 131 126 136 146 148 130 156 159 161 136 114 104 96 109 124
25 15 21 27 38 51 62 83 93 107 123 141 158 184 206 204 193 168 158 157 166 165 170 153 163 164 137 133 133 136 146 145
59 55 18 23 37 46 43 52 101 127 128 154 176 221 221 197 209 210 196 184 200 189 193 186 174 175 183 171 179 194 217 211
109 89 107 42 53 39 47 48 98 149 144 122 135 136 149 185 200 221 216 214 222 254 238 247 249 235 212 219 229 303 366 344
69 110 153 181 118 100 40 49 56 115 128 89 104 109 122 146 157 168 188 212 226 230 256 284 290 258 288 309 276 274 236 230
69 20 57 116 126 132 119 71 62 110 111 96 114 139 129 128 128 130 137 143 170 209 221 237 234 236 281 307 241 181 164 257

GFSFLT1_con_3kmhel_078.txt.gz
Helicity
90 109 138 132 210 167 138 173 199 210 105 81 81 95 124 110 80 86 66 166 229 322 7 40 158 186 192 138 112 138 103 84
146 122 182 177 244 209 185 176 204 201 146 122 108 77 91 121 126 56 40 126 181 173 57 85 169 186 221 159 121 118 107 65
256 182 180 191 213 198 178 152 181 158 118 100 118 117 90 120 173 85 144 179 150 81 30 99 146 153 160 135 133 133 113 80
268 234 174 186 204 165 181 135 174 138 98 94 116 150 132 123 123 143 89 105 55 -3 -12 3 -24 -15 136 133 157 99 117 99
216 277 192 198 141 182 117 119 118 140 125 138 147 208 194 149 153 101 76 62 90 51 61 71 32 49 137 167 121 92 112 118
163 278 229 170 156 212 107 158 96 125 105 121 158 138 128 143 139 115 81 102 76 69 67 86 60 140 131 148 127 93 92 139
112 202 204 154 208 196 154 137 99 115 130 137 140 168 202 191 161 149 148 153 195 170 218 211 149 113 144 133 100 138 137 120
133 244 197 168 247 240 161 185 94 115 136 129 141 142 195 214 214 171 121 136 186 229 297 297 216 130 176 190 179 164 161 175
96 180 264 159 243 263 178 190 104 158 130 128 118 131 118 169 228 173 168 170 169 243 256 237 218 119 138 167 175 194 206 236
89 104 292 239 237 273 207 153 118 143 150 117 102 116 158 240 220 217 223 193 131 171 257 163 152 49 51 185 205 158 158 129
60 69 228 302 234 258 234 136 116 121 209 141 108 101 115 148 200 222 224 204 216 173 204 148 102 50 157 200 184 112 139 31
43 62 113 226 203 236 265 178 118 120 194 184 132 122 119 121 108 176 195 201 215 212 276 254 223 182 134 178 226 207 159 108
43 20 25 157 189 212 253 205 134 141 169 204 174 152 149 145 149 161 173 168 178 184 199 229 237 257 230 238 258 234 203 145
90 42 27 28 154 176 227 253 147 107 156 190 199 187 192 177 170 182 173 187 189 193 193 249 257 238 276 247 256 268 212 143
84 47 0 25 75 123 155 209 234 143 118 166 192 203 227 202 181 197 226 222 228 223 232 228 222 214 231 235 220 201 189 165
166 173 158 82 114 90 96 136 218 219 122 127 175 206 190 199 217 249 254 268 270 239 257 253 265 265 272 265 253 238 219 207
138 114 172 152 159 122 55 105 137 215 219 153 180 218 217 207 228 269 282 290 281 298 320 325 317 310 325 321 309 284 258 246
86 80 97 112 181 299 200 176 83 142 192 238 226 227 224 201 228 247 258 307 307 299 306 325 329 327 337 349 332 309 275 268
23 55 49 57 124 125 168 241 182 217 144 198 247 244 229 200 217 215 222 260 289 303 289 282 273 279 312 349 348 313 280 341

GFSFLT1_con_3kmhel_084.txt.gz
Helicity
399 389 373 393 325 283 249 214 221 214 181 164 101 53 64 96 114 168 230 230 234 179 171 218 137 103 76 89 121 126 128 174
395 383 383 416 343 312 263 252 229 271 192 185 105 59 51 91 122 137 211 224 198 176 157 195 170 102 108 139 148 93 145 178
419 443 418 400 393 290 275 260 246 236 214 155 23 51 50 44 107 48 98 150 137 197 163 213 256 234 145 137 140 193 186 156
475 449 438 404 395 306 269 255 234 205 192 155 109 34 87 81 59 61 37 55 63 124 109 186 209 208 207 75 112 115 159 134
490 503 427 375 363 321 260 228 209 192 187 167 159 119 137 61 77 23 6 37 125 69 98 89 136 118 75 42 55 108 210 147
441 482 434 362 396 332 263 199 186 170 184 173 164 129 73 73 72 15 3 -53 -10 79 95 140 112 125 149 -90 -41 52 131 163
423 485 449 380 360 324 249 205 186 157 169 179 193 170 142 118 77 25 -31 -21 -60 33 157 138 129 135 76 52 -10 26 131 172
366 468 422 351 367 319 241 202 197 161 156 159 191 186 186 168 128 49 59 22 -16 -18 74 97 143 146 55 2 68 141 176 198
313 409 405 343 328 322 223 197 211 182 173 160 159 183 171 148 155 123 100 83 19 21 -0 48 66 105 160 190 175 161 171 182
241 331 330 271 301 282 220 178 200 200 173 157 164 166 164 167 153 138 111 109 63 70 74 56 57 70 75 127 166 197 225 216
224 252 169 163 263 279 247 166 190 191 203 166 148 153 157 161 175 194 169 103 96 103 78 68 55 69 114 166 145 76 195 217
104 80 76 167 237 272 268 202 156 164 193 204 181 163 160 164 172 174 174 155 124 132 126 104 93 91 103 120 141 173 189 183
240 133 135 118 141 212 291 242 211 197 174 178 185 167 140 168 175 146 147 164 161 163 146 152 142 138 128 148 168 192 226 208
498 424 339 172 27 46 71 84 81 151 232 183 163 183 165 142 149 156 139 136 149 159 171 172 174 166 193 200 225 228 226 196
391 405 393 327 249 220 147 72 39 118 221 237 245 205 195 182 200 230 214 197 188 193 187 195 194 192 207 216 205 210 224 238
154 238 278 269 243 227 210 180 130 69 137 198 255 307 300 244 186 214 261 288 262 240 247 232 222 235 253 250 246 229 221 221
34 5 99 185 202 264 269 229 172 118 159 84 95 115 216 292 328 344 278 238 254 292 299 307 301 299 281 318 308 286 263 228
96 84 62 75 140 184 223 276 244 225 212 220 221 230 128 99 203 250 307 346 327 278 276 285 299 313 323 345 342 314 282 271
87 81 92 115 111 131 97 151 214 217 219 220 198 174 127 159 202 120 221 290 364 399 372 358 314 299 335 360 369 298 259 235

GFSFLT1_con_3kmhel_087.txt.gz
Helicity
283 374 361 364 353 246 227 236 250 220 204 235 160 99 71 76 102 172 142 184 199 190 197 183 169 213 191 227 239 305 233 216
237 366 369 377 315 299 229 244 247 264 222 235 194 84 35 59 111 77 244 189 224 190 238 186 172 164 195 229 255 277 269 243
285 359 368 361 334 292 258 215 239 238 192 201 174 71 54 48 57 61 193 296 303 298 267 180 161 174 182 195 214 264 289 211
302 369 382 368 316 294 281 230 215 233 208 198 185 103 53 78 99 100 69 238 287 253 213 173 162 141 185 152 203 209 258 186
259 412 414 365 328 265 263 243 204 188 228 206 206 99 73 50 74 103 80 204 284 232 172 202 237 172 242 208 154 169 198 188
276 368 393 409 399 281 253 271 201 194 173 172 160 113 75 73 63 80 74 131 150 160 165 238 312 180 206 203 268 132 148 187
206 306 494 447 401 286 266 258 164 188 152 164 132 106 119 96 82 63 63 31 114 125 156 165 128 173 191 128 165 100 75 147
183 324 441 460 394 301 291 232 151 170 137 137 115 106 108 90 80 71 71 89 117 68 90 68 113 145 137 145 110 149 115 128
99 302 455 476 392 317 290 257 159 167 124 112 89 96 81 66 94 91 83 59 16 43 6 -26 85 138 128 108 128 195 86 61
-39 260 399 395 380 288 309 232 163 151 134 111 112 102 90 59 59 89 89 76 31 32 52 60 92 143 112 119 121 162 131 65
93 241 249 292 261 268 271 220 181 157 129 119 112 121 112 85 45 41 58 64 89 65 29 25 59 123 134 129 91 55 91 113
108 156 172 182 159 175 207 181 149 150 152 143 126 130 124 110 83 49 38 22 58 102 90 73 82 68 75 116 116 143 170 141
196 149 176 135 141 139 170 148 96 120 149 138 140 130 125 131 136 111 93 79 57 60 78 102 90 99 123 114 111 146 180 132
397 384 269 121 69 66 74 86 76 87 113 148 150 160 165 155 131 158 166 131 100 92 96 95 93 114 138 168 155 148 183 189
423 426 370 333 314 309 247 165 59 74 93 142 158 156 183 166 143 131 127 138 146 140 131 131 136 133 129 128 158 160 156 184
389 366 406 402 368 339 267 253 237 139 84 88 92 114 136 190 206 171 169 149 165 186 182 167 179 186 203 192 192 194 183 180
346 283 319 327 317 273 222 219 231 241 344 265 146 86 87 100 140 175 187 202 219 223 224 239 250 264 232 273 288 246 228 226
136 201 193 119 188 147 168 181 192 224 228 245 241 231 229 271 219 111 132 161 193 216 236 262 274 283 293 333 352 319 296 279
131 69 96 112 114 132 119 151 199 235 273 278 253 223 198 185 179 177 200 199 110 188 218 263 280 286 305 373 406 354 312 302

GFSFLT1_con_3kmhel_093.txt.gz
Helicity
102 77 56 95 121 158 214 248 258 241 213 188 157 143 146 160 124 77 109 77 51 151 219 421 334 229 164 157 160 151 99 115
41 56 71 84 91 166 206 299 295 330 278 208 160 164 146 136 85 63 127 113 283 355 447 314 252 209 163 190 244 175 144 135
59 66 62 70 70 148 178 254 318 326 270 202 161 166 114 113 79 89 121 139 129 120 191 185 151 198 216 245 239 207 174 134
52 73 77 47 45 116 197 244 302 315 289 211 157 156 111 102 71 33 34 81 79 124 105 122 167 156 189 214 231 223 222 155
54 74 73 57 37 89 132 184 273 282 296 215 166 163 113 86 57 44 59 81 65 112 173 131 150 173 199 240 235 217 205 179
123 81 54 59 67 106 198 196 181 235 267 180 160 147 93 105 85 64 80 100 111 85 163 153 204 183 225 260 255 217 186 191
201 126 26 48 51 104 226 216 200 172 212 160 144 148 104 104 117 93 89 112 57 120 210 180 259 265 244 350 239 238 239 153
199 123 59 48 69 133 199 227 223 187 172 152 148 118 89 87 102 96 73 75 73 114 119 224 228 192 254 248 141 136 113 175
159 190 103 78 88 156 214 217 255 198 161 117 116 93 68 60 73 86 63 46 57 74 114 140 274 178 232 187 100 109 100 156
194 188 149 115 105 116 192 184 210 198 158 119 99 78 67 52 66 74 78 76 66 73 92 157 134 184 195 219 102 80 128 82
209 154 141 130 100 143 180 178 150 174 142 121 96 74 78 47 58 49 58 63 48 77 85 118 146 112 134 222 49 28 86 47
155 113 72 79 72 146 136 141 114 102 112 86 61 71 69 42 36 38 32 28 22 26 41 55 94 105 80 73 41 39 62 51
207 212 41 42 75 113 130 146 102 93 108 86 68 72 84 59 29 24 28 21 18 18 27 30 50 58 58 68 98 125 146 123
278 348 420 277 125 113 186 136 94 138 133 112 95 103 86 63 58 45 40 29 30 25 33 50 62 65 74 79 101 119 130 127
318 330 411 409 402 543 463 234 91 138 155 162 153 127 108 82 74 78 73 59 51 53 59 55 52 69 85 107 123 130 138 128
598 379 444 465 423 407 441 441 503 245 184 158 113 108 89 76 66 69 75 71 54 43 47 52 67 66 69 75 82 78 89 107
359 475 540 490 435 374 354 437 484 443 363 304 266 201 199 166 127 64 53 74 80 97 36 28 39 61 86 116 104 113 114 113
331 527 477 561 489 433 423 417 376 369 433 299 296 329 210 180 175 197 227 225 210 247 237 170 92 204 292 210 108 159 169 179
167 175 421 447 320 305 298 323 390 400 198 202 319 249 175 156 153 184 208 198 203 193 210 250 204 266 306 270 227 110 134 134

GFSFLT1_con_3kmhel_096.txt.gz
Helicity
59 88 90 78 83 90 104 137 182 212 210 203 173 151 140 127 143 135 79 85 92 117 150 227 368 313 293 242 195 91 65 70
32 38 69 96 75 84 99 150 189 280 296 277 224 176 162 152 151 94 31 116 181 95 111 231 303 317 298 217 112 81 100 117
60 54 54 35 70 90 86 132 190 227 236 200 179 158 140 110 128 59 57 126 108 61 106 373 332 281 265 178 82 95 156 127
89 71 61 62 58 83 69 121 177 169 185 213 183 136 141 120 127 69 115 185 162 194 225 310 247 349 222 96 66 104 154 124
127 100 84 66 66 82 49 146 150 147 188 211 173 146 135 84 128 39 111 126 82 93 197 363 350 267 117 105 138 126 145 123
149 114 124 95 86 78 43 153 122 158 173 182 153 101 96 88 136 86 73 106 87 93 61 83 136 135 116 126 132 139 101 130
205 147 90 131 121 85 73 145 123 143 161 169 139 105 100 77 151 96 98 113 152 79 37 108 130 133 125 153 188 209 194 166
169 240 151 88 114 83 101 145 119 131 152 153 143 106 93 44 134 119 114 114 149 105 68 193 144 159 144 183 211 221 241 248
138 203 205 146 100 69 106 104 98 117 152 155 151 107 97 25 103 109 87 83 109 45 60 119 140 127 204 180 201 173 128 125
118 197 213 151 92 77 89 89 108 131 130 156 166 121 61 30 73 75 78 72 74 95 60 106 67 204 152 183 183 118 91 90
119 209 324 114 80 93 107 130 167 180 147 128 153 124 44 40 61 82 79 68 61 70 78 96 103 211 119 87 141 139 86 53
123 252 402 141 78 122 138 122 157 186 159 114 122 112 64 75 36 76 56 62 49 37 57 93 90 98 94 107 103 110 70 49
103 203 310 267 98 82 104 97 155 178 157 115 106 116 81 89 56 74 60 41 34 33 40 81 52 54 67 51 80 77 63 14
166 260 371 300 350 119 71 134 180 159 119 129 104 111 102 89 64 58 68 47 33 18 29 43 53 76 90 86 70 48 49 43
195 378 399 370 338 326 408 337 203 198 169 178 160 132 135 115 71 86 79 65 52 38 27 21 28 40 49 56 54 57 94 105
219 439 490 423 459 446 397 464 510 400 340 329 256 176 185 160 107 100 95 85 71 47 42 38 41 48 58 41 56 65 79 92
77 363 613 558 485 438 442 407 471 478 481 491 513 439 332 303 272 279 249 210 175 120 84 54 43 196 209 178 85 71 69 64
145 26 285 568 538 487 603 522 478 490 439 410 386 441 406 294 235 215 211 212 212 237 204 203 247 249 294 267 199 88 85 84
107 98 43 398 712 729 512 345 395 375 414 413 368 410 596 471 228 213 181 179 202 219 267 231 236 266 279 237 185 104 86 97

GFSFLT1_con_3kmhel_099.txt.gz
Helicity
38 43 44 55 61 87 128 151 142 148 180 209 185 181 161 134 125 163 102 110 109 103 90 136 198 242 206 211 154 168 108 108
28 33 27 67 115 123 129 150 148 220 230 285 262 208 203 158 185 114 103 94 83 90 157 250 269 250 226 224 187 168 101 102
27 30 32 33 71 95 125 112 133 235 249 244 185 169 163 129 134 105 117 66 74 128 183 256 260 249 307 232 183 133 131 109
128 143 115 84 85 70 80 107 122 249 187 143 125 131 164 156 171 106 142 87 123 137 160 219 269 284 227 211 193 170 210 156
140 121 108 95 90 76 83 98 104 260 116 98 127 149 170 142 122 100 174 108 141 100 68 78 241 266 250 242 254 178 202 197
150 139 141 122 117 85 104 105 123 253 107 73 134 105 137 134 120 159 171 125 123 130 134 177 287 359 358 228 210 203 129 179
152 164 146 123 114 135 106 105 210 208 94 81 109 106 142 194 129 170 177 148 174 151 119 194 358 211 155 198 115 68 104 104
169 189 180 187 224 84 132 97 191 140 148 77 122 112 149 182 117 178 167 171 189 174 165 128 137 241 206 124 88 89 95 99
104 125 167 159 116 167 105 120 146 97 145 73 132 129 153 152 119 173 125 139 156 164 168 111 97 61 116 140 176 191 205 248
103 110 188 251 226 87 98 162 98 113 123 134 134 124 155 144 137 149 123 100 129 139 139 143 162 136 96 158 97 110 141 147
75 122 232 308 366 80 147 146 57 116 136 176 150 142 134 152 150 121 113 90 114 132 134 107 137 146 154 64 73 65 80 118
59 128 214 301 564 127 180 75 132 149 140 192 194 165 140 146 160 125 112 83 96 117 153 128 129 143 147 181 167 119 110 121
24 99 225 322 548 549 100 66 170 131 151 178 179 190 142 163 147 107 114 104 51 85 101 108 145 113 127 136 129 92 110 119
-3 52 276 341 426 545 373 93 120 142 173 187 174 175 148 165 156 125 106 88 37 37 54 65 78 86 94 89 88 73 50 74
24 34 176 401 408 431 485 386 277 157 193 179 188 177 162 165 148 122 87 62 56 29 18 36 37 41 49 52 56 57 28 7
3 96 60 264 456 443 461 498 460 472 502 494 401 241 195 173 155 142 129 115 114 63 60 61 48 61 117 69 16 7 6 7
73 84 124 160 417 451 492 544 525 454 489 526 545 508 452 421 361 420 285 271 262 227 218 169 225 196 220 165 119 72 52 56
64 91 141 159 221 347 458 474 469 529 521 561 575 559 508 482 434 450 447 401 380 342 330 318 289 234 259 215 173 105 90 121
3 24 75 131 44 136 352 365 368 406 545 571 572 549 573 546 550 493 459 419 398 360 324 301 274 256 301 269 196 160 212 220

GFSFLT1_con_3kmhel_102.txt.gz
Helicity
66 78 42 74 80 56 283 329 293 163 181 224 260 249 225 155 199 221 173 157 156 168 181 174 156 206 207 193 166 194 180 152
61 72 66 51 99 97 155 278 331 254 214 230 262 293 284 202 151 152 236 214 174 168 209 147 169 238 232 194 185 221 194 191
68 53 83 85 97 161 162 182 315 336 264 226 253 246 217 186 156 167 155 161 178 208 224 181 187 212 225 192 192 245 208 207
25 86 139 185 144 122 191 242 342 366 285 261 246 201 200 183 170 157 170 193 219 240 219 219 216 284 294 212 208 220 210 167
192 178 173 183 180 161 99 175 232 378 425 304 202 234 254 215 210 182 162 253 296 252 232 231 209 230 357 236 257 236 250 167
278 273 254 181 181 157 120 117 115 368 457 328 178 151 169 135 159 151 271 298 268 201 201 184 183 276 231 211 248 267 260 226
260 336 351 332 281 283 236 125 152 334 386 292 177 130 185 139 150 247 300 242 236 199 173 148 115 212 199 185 166 191 238 217
239 252 199 166 171 126 255 187 147 342 324 243 164 197 130 144 205 266 265 272 261 212 173 152 182 136 219 239 209 155 246 229
143 112 96 94 107 167 149 284 140 303 282 244 144 197 144 200 244 228 269 234 208 210 201 140 166 168 150 187 153 304 218 174
54 81 63 119 132 111 81 86 209 347 268 188 172 161 135 241 177 233 260 225 229 220 196 148 105 97 222 181 239 313 228 165
88 82 71 134 192 247 213 108 341 347 238 78 138 144 197 213 196 252 209 192 214 230 194 163 121 124 60 85 71 124 121 143
99 106 98 152 254 373 610 249 239 195 97 43 156 210 235 221 197 172 173 185 196 220 183 161 136 153 122 111 94 133 45 42
80 111 109 126 267 444 504 558 182 102 47 144 195 372 223 200 158 164 198 191 163 181 183 128 105 148 161 162 120 101 49 79
68 119 156 156 166 386 456 424 459 149 115 157 188 277 227 194 164 146 180 188 148 146 139 133 94 101 143 127 139 157 155 129
10 55 137 157 101 257 354 392 540 488 137 133 177 162 224 157 153 186 177 164 154 123 121 119 79 80 87 73 98 110 137 103
30 41 76 138 87 159 364 432 489 483 513 479 451 271 209 190 199 138 146 155 123 124 125 90 99 120 157 98 88 85 73 71
60 70 60 60 153 91 210 400 423 445 563 620 640 556 498 402 367 349 352 387 389 410 440 418 356 294 245 183 133 62 45 61
23 42 39 52 49 151 -19 229 374 467 504 571 667 662 600 504 497 511 503 431 398 437 488 428 380 322 310 215 152 148 195 226
-22 -22 12 22 27 56 162 -8 255 353 436 460 508 541 594 563 537 565 599 511 476 477 501 446 359 354 370 269 216 231 265 265

GFSFLT1_con_3kmhel_105.txt.gz
Helicity
89 54 105 146 116 242 344 366 358 318 285 293 251 217 195 229 208 189 157 149 183 231 243 223 246 298 238 224 211 174 163 156
86 101 112 119 142 206 308 378 330 367 284 347 306 282 232 257 232 221 198 178 178 193 214 224 251 298 235 206 220 202 183 171
79 105 128 168 144 126 285 363 348 294 268 298 356 356 296 227 251 208 216 227 203 191 236 228 249 253 236 231 247 242 221 205
217 245 283 269 260 163 169 243 266 287 285 354 434 399 282 232 187 186 267 241 220 245 275 268 253 224 226 230 277 301 272 194
339 349 375 386 428 437 427 166 231 269 345 378 376 377 285 239 205 188 181 175 254 304 304 272 241 220 240 261 282 307 342 192
484 435 422 402 419 377 434 437 168 279 303 309 349 320 223 250 220 163 164 205 331 369 330 276 241 232 233 259 282 280 472 211
396 418 389 389 390 340 352 401 425 305 308 341 323 307 260 238 188 160 217 296 369 354 303 246 220 229 230 193 284 410 220 289
317 348 321 254 166 164 158 210 352 377 258 373 339 292 283 228 220 167 248 291 286 273 248 175 178 196 197 202 361 213 213 246
193 147 173 192 162 116 142 115 152 311 273 350 340 278 285 236 194 212 239 255 246 276 218 146 142 148 160 133 138 208 231 270
129 140 145 141 128 120 83 94 18 155 230 272 327 275 211 259 242 253 257 243 247 249 200 167 139 169 118 117 123 133 233 237
130 118 142 154 132 132 176 184 103 110 147 299 324 262 264 262 301 315 248 253 217 201 189 183 150 183 133 169 117 132 207 242
167 162 176 196 165 149 248 380 488 398 187 234 256 249 229 249 327 301 220 203 187 181 183 170 137 143 146 153 158 263 317 245
121 132 171 227 204 160 262 395 442 448 332 128 135 175 225 288 325 273 162 162 152 148 180 173 121 136 139 88 120 75 89 142
115 154 210 274 251 203 188 326 344 370 383 114 107 164 250 259 291 254 105 140 139 149 159 151 129 115 152 86 85 114 94 111
95 131 151 255 280 230 138 178 311 339 344 363 293 171 192 198 257 204 104 153 160 148 154 121 101 92 146 139 131 137 104 102
101 116 109 114 243 241 220 165 184 311 447 459 394 412 286 408 393 250 138 148 126 114 126 108 128 154 158 143 112 100 107 102
20 35 54 70 96 216 189 184 201 230 379 414 453 410 432 450 486 519 388 365 325 381 400 298 269 234 219 176 130 95 115 103
-25 -19 -9 1 20 52 158 179 144 96 333 523 431 451 502 495 521 560 553 546 453 459 438 410 344 242 216 173 189 210 228 228
-47 -32 -25 -22 -20 -3 29 77 127 169 105 305 589 528 497 498 477 512 564 684 572 636 533 500 405 375 318 305 358 351 365 328

GFSFLT1_con_3kmhel_108.txt.gz
Helicity
140 117 143 138 221 253 283 320 328 313 311 331 305 256 237 231 227 236 204 159 190 214 217 197 223 249 240 213 189 187 162 114
124 132 169 190 246 252 281 321 346 447 423 399 315 250 275 259 239 229 197 163 180 210 232 243 254 272 275 255 238 191 160 195
60 96 133 114 58 179 303 315 384 459 386 364 327 303 244 262 247 223 195 181 169 190 228 247 271 293 310 296 273 250 196 211
137 198 251 323 256 228 235 265 302 404 370 439 430 374 339 291 248 249 240 225 201 193 213 226 247 268 281 293 271 253 270 236
537 555 523 637 603 593 488 214 179 237 295 354 386 370 350 269 299 322 254 223 207 209 225 230 239 226 230 202 209 235 288 255
524 586 686 692 658 689 561 520 464 332 172 237 320 273 239 294 318 289 265 231 208 220 250 240 238 236 216 176 171 216 300 314
487 315 398 450 414 434 486 509 469 456 399 208 233 260 270 309 280 284 227 148 203 194 245 259 247 232 231 181 166 216 303 265
541 417 301 368 388 355 301 304 348 378 346 313 206 225 267 299 313 284 241 186 197 197 250 287 271 242 204 182 195 218 226 280
376 352 296 308 306 229 175 160 231 205 254 212 201 226 284 299 323 307 227 198 223 246 271 273 253 220 198 167 195 182 176 273
368 296 201 171 155 166 127 108 113 143 222 185 175 208 311 321 306 336 235 196 241 262 242 217 206 150 143 139 139 118 233 178
335 276 261 241 202 215 224 156 156 209 321 199 220 236 308 306 356 316 250 195 199 237 223 206 182 148 124 114 78 142 157 165
246 254 264 251 256 316 314 223 230 293 330 366 212 228 240 264 255 267 287 222 202 195 192 192 173 145 138 115 109 149 225 214
197 210 228 257 259 285 297 257 275 326 341 440 242 177 156 203 267 281 307 251 203 169 165 179 173 144 145 99 100 126 147 139
240 249 240 244 262 246 259 220 313 271 280 325 364 310 157 134 215 297 276 266 192 144 122 155 152 132 144 101 82 124 165 134
193 196 184 182 229 233 252 249 184 197 195 227 312 344 336 225 205 235 268 220 172 85 76 132 137 137 146 109 81 97 122 128
112 117 150 165 179 202 201 158 173 205 167 139 264 303 332 347 380 193 189 185 136 70 101 154 169 164 198 124 88 91 111 146
24 22 35 52 100 152 214 230 141 101 110 124 171 257 362 390 532 590 649 494 385 375 312 279 283 223 195 161 121 104 115 134
5 10 6 12 40 57 101 180 143 167 250 267 154 157 263 452 332 564 673 472 427 438 407 340 317 259 193 158 167 187 209 237
-23 -21 -3 5 2 14 13 25 62 76 131 243 233 199 135 458 432 580 562 741 699 542 508 440 399 360 309 298 299 297 322 275

GFSFLT1_con_3kmhel_111.txt.gz
Helicity
95 93 153 155 162 156 178 236 246 279 279 295 242 227 212 201 181 172 178 175 177 197 183 174 204 208 201 193 183 167 148 119
117 108 122 174 137 183 260 286 267 352 361 327 278 201 225 202 206 208 202 226 212 210 198 178 195 202 205 208 197 189 177 168
116 243 271 271 235 185 165 221 337 336 352 321 327 316 258 239 257 222 201 231 238 243 227 199 195 203 208 218 237 216 180 176
156 181 346 408 454 456 283 207 260 265 282 343 431 441 344 306 213 216 219 236 257 249 238 234 227 229 224 239 253 241 232 189
362 460 529 464 448 429 505 399 224 246 271 278 345 365 325 237 236 262 211 226 244 232 231 248 242 235 231 261 278 302 278 219
490 529 598 707 625 532 572 522 413 459 255 190 242 246 265 275 258 220 230 200 224 229 216 222 229 231 224 267 266 288 271 220
602 586 565 713 545 566 575 584 457 406 419 343 189 211 231 265 251 263 247 247 236 224 237 248 233 205 228 219 232 228 228 202
560 577 632 639 633 637 584 590 521 440 419 357 312 215 221 206 288 326 311 299 301 265 256 240 243 222 222 237 263 219 195 192
524 484 440 491 485 505 491 452 491 365 290 302 294 244 219 226 235 279 301 277 266 305 262 242 203 215 232 244 238 218 190 180
587 306 360 315 249 227 246 278 304 298 256 231 213 154 179 212 228 264 284 281 291 277 223 201 208 209 228 230 208 188 178 135
463 386 315 254 243 161 142 141 122 170 247 260 199 142 155 173 199 233 299 300 299 264 249 202 193 208 213 205 181 157 141 94
496 342 287 236 288 252 128 206 254 255 227 276 370 291 189 217 259 265 299 299 312 254 204 189 183 186 203 180 148 131 126 86
382 286 236 275 223 299 308 354 363 366 376 394 425 494 524 293 245 235 264 234 236 220 205 183 198 175 184 163 149 144 130 108
260 277 297 331 323 337 397 407 410 411 369 336 311 376 385 394 315 159 183 203 227 238 219 181 178 157 175 162 154 139 126 101
221 239 226 225 237 272 333 376 325 266 207 224 211 199 225 259 246 273 134 170 201 223 232 196 145 149 155 155 154 130 127 102
151 206 224 196 189 208 252 310 286 261 205 215 225 206 166 186 249 278 362 167 191 213 242 177 126 114 165 164 166 157 148 143
50 59 92 112 110 113 135 178 239 230 182 157 211 181 186 65 182 174 342 556 586 513 389 270 283 234 247 231 191 143 142 138
46 41 40 53 65 62 66 113 139 174 206 212 269 250 227 167 99 119 153 408 561 561 512 385 330 232 219 183 187 206 224 254
5 1 5 13 22 20 2 28 50 75 102 172 227 207 232 246 187 164 263 296 576 324 564 505 369 307 313 296 305 294 308 303

GFSFLT1_con_3kmhel_114.txt.gz
Helicity
117 122 119 215 218 176 169 236 210 201 204 170 160 166 156 196 153 138 145 145 158 169 158 163 157 151 151 160 148 147 148 150
66 59 108 172 237 127 164 234 215 216 213 190 179 174 210 164 193 169 163 165 165 165 159 174 171 177 170 161 152 150 147 174
54 191 249 238 238 197 173 113 183 185 200 201 220 195 157 200 206 226 168 176 186 187 182 174 168 178 168 169 191 198 175 222
152 220 280 358 303 301 267 118 143 176 204 285 314 305 283 262 192 199 195 189 194 196 198 201 198 192 194 201 197 207 238 239
306 294 311 378 420 410 391 395 242 164 190 224 230 248 267 223 233 226 226 253 204 205 214 215 206 206 212 218 237 230 230 265
452 432 372 374 418 452 460 431 469 447 414 205 248 245 240 250 283 223 240 198 203 200 232 233 222 213 213 221 244 242 257 253
379 430 432 453 460 491 524 447 487 435 410 425 309 213 215 253 235 228 211 226 227 212 226 234 209 203 217 220 208 227 254 247
391 436 512 508 540 598 609 621 551 499 453 417 353 331 171 189 247 233 244 259 265 267 250 250 254 238 226 235 236 241 272 269
446 449 498 534 550 565 546 530 527 527 410 372 290 244 203 150 192 235 266 244 245 222 242 241 223 225 228 233 223 225 254 266
526 470 503 518 537 530 510 464 415 394 372 329 305 251 185 152 152 202 210 224 251 273 224 261 248 228 228 240 215 228 255 251
530 554 478 480 555 507 416 372 325 307 279 255 239 221 192 123 163 150 193 219 255 283 255 239 239 214 258 245 202 234 235 240
546 508 450 237 287 367 322 299 290 296 267 243 207 193 220 204 148 131 146 178 191 213 254 271 259 226 287 230 220 230 197 195
562 531 596 420 394 316 294 328 288 241 196 151 179 244 313 359 402 445 212 225 225 193 243 267 259 244 239 220 224 200 169 154
342 292 389 334 329 363 371 346 377 392 403 383 365 366 406 431 426 422 376 229 251 251 247 213 217 219 213 192 191 175 157 141
475 379 325 306 267 313 370 401 400 380 375 381 398 395 301 319 310 330 272 247 255 195 171 153 170 205 230 166 169 153 143 132
179 186 222 251 283 268 267 302 279 303 284 303 314 266 228 218 217 153 173 131 208 255 208 163 196 220 261 175 146 127 130 129
101 68 62 101 123 114 144 210 246 207 238 252 327 286 288 237 264 245 152 144 118 263 369 400 502 437 587 336 116 108 126 133
71 82 70 64 76 85 94 110 98 105 122 171 261 329 306 296 211 232 217 194 192 181 352 458 447 417 519 397 183 168 188 221
52 58 65 76 69 80 54 40 49 59 50 67 90 171 235 278 255 208 183 158 195 230 207 262 213 205 315 343 287 309 302 295

GFSFLT1_con_3kmhel_117.txt.gz
Helicity
14 103 95 141 135 128 146 185 162 186 191 139 122 120 123 120 98 81 84 123 120 85 85 102 118 115 113 128 146 143 126 110
96 65 62 51 56 66 65 142 161 228 237 184 115 107 104 95 69 66 86 114 132 130 112 105 126 131 131 147 163 155 153 149
95 88 113 82 99 136 57 61 151 204 238 217 164 162 108 85 93 84 85 108 133 147 167 126 136 142 142 165 210 223 177 189
76 172 196 153 164 239 311 174 127 171 175 233 176 138 142 124 102 114 98 107 116 127 165 164 149 162 159 172 192 209 234 227
170 171 238 233 253 263 330 348 168 113 201 199 188 185 175 138 134 154 150 123 130 132 147 154 167 177 187 197 197 200 221 242
167 217 205 314 299 327 297 304 373 407 280 150 185 159 157 126 172 164 179 186 179 138 144 161 184 182 176 219 208 189 182 190
145 211 262 254 339 347 352 328 367 380 373 317 230 140 154 162 153 190 173 210 208 138 167 194 188 184 194 202 188 182 189 191
203 203 312 345 376 398 354 379 352 378 367 328 312 337 286 169 163 188 188 185 213 158 235 245 211 213 217 213 192 185 185 204
241 221 272 361 398 390 376 375 373 378 375 341 299 266 256 272 173 169 170 177 194 190 158 215 224 224 212 201 212 213 209 196
325 310 268 291 358 431 411 412 406 402 370 348 321 297 289 258 224 194 154 134 165 182 204 185 201 218 224 224 218 223 250 229
498 449 378 320 336 380 413 418 401 418 419 390 345 304 251 210 129 143 144 128 110 136 177 173 194 201 227 226 233 213 257 281
639 561 463 404 389 402 401 428 426 405 393 374 332 287 270 229 214 224 247 126 149 150 154 178 202 204 212 237 230 248 267 265
509 570 502 529 507 450 485 409 385 352 293 256 239 238 221 178 188 211 220 227 121 168 165 152 186 214 202 231 224 272 242 241
637 471 426 481 472 429 367 403 326 274 235 222 231 254 257 235 220 260 277 297 328 239 195 199 204 214 226 239 240 256 243 206
321 368 478 516 618 443 401 418 379 326 321 345 353 364 321 264 257 267 335 356 362 369 368 275 264 261 270 251 227 226 226 204
178 281 284 283 361 374 332 325 291 296 386 379 360 313 312 322 315 333 297 329 296 267 294 348 395 423 406 349 284 202 216 268
87 89 84 154 191 258 283 275 247 146 185 247 297 275 289 306 297 288 244 280 236 213 232 219 249 231 288 243 287 231 191 143
126 156 157 167 167 141 150 168 160 136 107 113 190 267 271 273 255 312 332 321 273 244 207 225 216 241 264 194 270 334 449 262
76 93 120 131 118 135 106 83 81 84 89 84 82 101 118 163 197 218 222 237 217 211 261 261 286 319 300 164 205 335 325 403

GFSFLT1_con_3kmhel_123.txt.gz
Helicity
135 99 32 31 41 49 133 164 115 114 119 85 136 138 94 98 99 99 105 129 103 100 102 89 75 102 110 43 66 61 46 64
121 170 153 100 37 45 67 225 149 144 125 127 134 166 119 100 109 123 81 158 139 120 112 99 104 106 92 91 99 61 84 82
97 164 249 197 238 152 152 150 200 250 195 137 134 169 143 125 137 158 157 119 170 142 142 120 112 104 104 102 119 107 91 100
69 130 166 337 274 394 344 243 208 296 270 112 127 162 150 144 136 185 187 131 164 149 146 158 138 132 126 116 132 132 135 139
93 122 104 109 162 88 103 121 66 113 336 177 165 177 190 201 163 163 190 184 105 143 165 171 173 146 138 127 142 153 172 212
54 46 59 74 72 42 65 81 60 40 103 274 163 147 218 209 194 136 188 175 87 99 146 175 178 175 135 125 145 154 162 216
40 65 87 52 126 63 120 179 32 37 23 223 156 133 197 226 170 207 208 161 114 80 94 154 164 159 154 151 157 144 172 190
14 75 116 167 126 132 224 236 138 256 228 318 290 159 150 223 339 233 248 177 129 108 96 94 146 167 169 160 176 167 166 190
23 71 129 116 201 235 286 325 243 383 366 458 454 526 251 378 585 158 288 130 123 77 78 102 137 149 164 179 186 178 162 157
12 90 57 155 221 339 366 330 307 399 429 495 590 593 552 404 595 474 148 177 155 35 53 80 129 158 165 190 190 150 73 120
51 128 211 233 266 300 274 283 360 298 380 447 429 588 589 926 465 153 137 142 172 184 40 25 116 164 187 206 231 202 224 204
79 165 299 244 322 502 412 336 400 344 180 315 352 284 446 593 504 427 110 57 151 239 230 83 101 157 198 218 205 221 241 262
63 132 288 357 416 466 486 494 382 421 260 214 262 326 330 341 230 303 250 237 248 289 318 329 276 225 198 211 175 175 169 179
113 144 308 328 383 408 494 398 357 395 411 291 273 355 308 265 237 264 301 283 310 341 408 397 372 381 350 362 353 265 174 201
112 191 250 351 410 445 330 355 317 209 186 208 220 212 249 268 221 274 308 299 321 334 337 350 367 362 336 295 297 299 254 268
89 146 184 218 296 465 459 391 381 254 213 273 242 211 197 244 247 231 255 243 252 283 292 301 305 277 283 291 261 233 253 261
36 92 127 209 218 221 242 249 250 209 270 273 272 254 213 255 272 266 284 284 284 276 321 313 352 308 404 334 267 236 257 288
36 45 44 60 70 110 110 102 106 149 173 156 208 250 230 213 199 205 229 247 257 237 271 241 241 286 372 337 244 158 164 214
18 13 29 56 61 57 68 69 65 87 114 135 107 92 84 72 81 125 164 178 197 187 172 157 168 235 330 321 232 186 176 200

GFSFLT1_con_3kmhel_126.txt.gz
Helicity
82 105 79 56 150 247 232 200 67 52 52 85 143 143 118 182 139 146 124 177 141 108 93 91 138 124 113 110 85 72 65 78
69 73 105 107 131 189 277 338 338 106 60 152 125 140 142 146 164 122 139 158 194 127 71 184 214 132 121 121 83 73 77 93
78 53 62 80 160 124 175 370 427 439 132 83 144 91 126 133 161 142 153 152 188 178 125 154 146 176 157 88 63 90 92 126
34 11 25 72 110 150 -26 145 268 346 382 96 95 130 161 119 153 159 228 220 187 215 164 142 146 151 154 127 87 102 108 129
48 47 41 75 87 61 81 -76 190 177 120 154 107 87 275 141 128 156 253 255 220 207 201 177 133 159 149 141 113 119 107 154
45 36 43 45 45 55 45 17 62 180 59 17 -105 -69 108 140 94 120 239 265 258 218 219 207 167 157 170 153 152 139 134 159
32 -11 -15 8 32 61 46 79 90 144 62 7 -43 -126 -43 95 78 206 283 335 303 221 210 229 199 156 157 163 152 153 135 127
-29 -49 -10 37 79 121 149 177 164 140 73 97 -7 -83 -210 -7 35 256 294 358 318 244 206 248 207 160 143 151 155 150 143 143
-30 4 -6 27 67 157 235 227 183 224 184 158 49 -59 -147 -31 486 300 714 562 395 229 167 168 175 157 150 138 149 169 175 166
-13 27 6 70 194 329 402 199 90 254 277 227 219 103 178 352 122 217 1043 856 673 450 221 140 115 131 148 161 166 176 199 217
20 27 64 96 128 282 406 352 247 327 332 351 327 311 236 332 258 496 354 622 517 399 352 205 107 121 132 137 159 183 196 181
17 35 70 98 180 210 415 245 272 257 341 512 538 489 401 295 251 633 337 185 431 283 219 262 240 213 156 108 148 185 182 205
5 32 97 112 185 256 266 357 420 360 321 445 482 591 533 529 549 597 621 602 547 94 160 225 232 228 241 250 301 293 232 237
27 79 155 195 155 260 222 256 363 293 359 228 442 552 572 472 427 384 456 498 585 176 209 176 169 225 254 266 250 325 342 384
23 74 122 195 204 313 259 241 252 375 329 321 188 356 503 495 404 430 425 423 346 272 223 186 253 291 335 407 348 311 310 302
-16 9 100 143 150 176 320 311 272 234 330 352 335 255 261 343 469 412 351 351 350 351 359 315 246 254 329 359 269 240 250 255
-10 -21 -15 8 32 20 47 104 169 113 143 154 133 160 196 222 224 206 265 284 321 269 247 257 298 311 349 306 222 191 210 246
5 -6 3 18 32 78 74 8 9 32 68 105 108 87 40 73 100 164 215 233 209 229 244 222 257 301 361 254 216 153 158 178
4 -23 -12 -1 -11 8 35 34 27 43 59 80 92 66 79 72 65 81 89 82 114 161 210 239 244 309 343 364 248 190 149 144

GFSFLT1_con_3kmhel_132.txt.gz
Helicity
249 209 128 42 -14 20 71 46 4 24 22 17 -3 68 76 122 231 105 83 105 119 207 218 231 266 250 210 187 153 134 145 107
159 97 24 -10 -34 -5 28 32 55 -10 31 62 31 18 49 115 151 204 83 68 78 118 223 274 249 253 204 220 206 162 141 149
81 -19 -37 -55 -73 -38 14 48 55 46 61 113 81 82 57 17 148 169 157 13 80 91 135 241 263 239 215 237 231 220 165 150
19 -13 -68 -51 4 66 67 64 25 45 62 78 102 38 -15 63 41 99 111 104 45 92 100 134 258 256 239 236 231 218 201 176
-16 -40 -28 37 80 36 27 14 31 30 76 65 96 67 26 60 4 46 49 120 78 60 124 80 177 260 249 240 259 239 233 196
37 36 63 70 30 -8 -4 11 17 32 46 79 50 102 73 54 68 0 71 41 74 48 73 146 109 249 258 242 248 250 246 203
69 61 52 23 14 5 -11 8 35 40 61 64 66 80 125 39 -33 16 -23 2 -31 2 -18 52 131 173 227 275 265 255 264 227
34 42 33 17 24 5 -27 -5 38 64 44 54 143 102 65 66 24 24 -34 -18 -73 -202 -130 60 -141 92 229 237 262 246 264 290
37 24 28 -4 2 25 7 16 85 112 84 71 130 162 82 46 34 66 10 -27 -67 -211 -183 -210 97 68 199 249 261 260 271 240
29 29 20 -23 -5 16 10 61 111 225 139 105 98 131 170 120 101 83 54 13 -29 -116 -287 -311 8 127 177 252 204 207 287 222
29 21 25 -26 5 44 28 21 112 239 235 185 131 108 180 209 136 173 169 172 150 41 -72 -41 -41 57 306 289 269 248 225 229
7 -24 45 67 31 38 21 50 90 256 256 272 244 164 187 215 242 326 331 397 407 268 24 125 234 574 458 415 324 250 193 190
2 -13 -16 79 70 77 64 64 64 140 245 306 273 273 194 291 319 470 539 613 596 461 303 -58 382 593 679 713 603 510 434 481
46 31 25 48 59 37 19 28 51 130 245 331 470 474 585 592 522 398 556 525 594 622 524 540 203 165 823 688 652 645 602 594
50 58 54 61 49 -23 -1 -3 0 92 43 172 159 326 380 683 644 566 598 549 468 463 511 566 631 456 90 342 387 376 673 541
55 53 49 60 47 4 6 61 38 -22 13 37 181 235 289 382 463 495 383 339 344 435 492 554 685 660 551 166 224 270 183 245
39 20 23 32 27 27 8 26 27 56 44 9 -15 -31 -8 167 230 281 290 235 177 321 271 211 423 515 592 444 157 209 223 191
25 3 15 16 22 31 22 8 25 28 59 50 76 99 91 115 138 162 255 330 284 253 222 231 176 172 225 244 221 180 210 222
29 32 22 20 30 40 36 17 13 28 52 70 90 90 91 93 76 74 49 28 81 127 139 133 154 133 130 109 76 60 103 162

GFSFLT1_con_3kmhel_135.txt.gz
Helicity
138 135 124 106 73 26 9 -9 -24 -8 -55 -61 6 -3 15 41 60 89 140 115 167 67 132 167 188 239 204 224 199 204 208 195
71 60 54 21 -2 -13 -8 -43 -39 -42 -4 43 19 -3 24 56 34 120 134 135 170 172 81 129 186 218 216 203 224 208 231 205
86 63 51 18 -8 2 3 32 37 59 42 28 27 3 -14 32 75 114 168 147 168 162 129 99 145 176 223 269 223 229 211 214
65 24 3 -22 -18 -20 24 58 44 32 40 11 32 30 -5 9 58 89 183 168 151 159 124 105 68 256 197 254 242 240 248 236
26 16 20 5 -11 31 72 34 28 14 11 45 59 37 6 20 40 91 154 196 115 136 117 101 96 188 81 218 254 253 268 234
37 37 26 3 17 52 23 26 26 20 -6 21 61 73 49 46 69 66 99 118 139 126 123 43 50 81 94 119 216 248 284 240
46 37 16 19 39 43 22 4 21 7 10 21 18 49 72 63 74 54 65 68 144 97 85 71 23 42 47 70 108 207 251 245
39 33 21 24 32 35 5 1 -14 -15 -11 20 38 22 41 21 43 84 66 108 116 128 69 35 6 -12 124 72 41 171 242 274
40 26 0 6 -10 1 2 -11 -18 -10 -27 42 26 20 36 65 69 92 116 104 123 180 117 29 -10 -35 36 108 -85 79 200 255
38 34 3 -9 -7 -6 -11 -14 -14 -20 18 78 32 -13 18 59 113 69 80 76 96 123 170 84 43 -23 44 30 -20 -72 182 202
69 48 21 -4 23 -2 -37 -46 -27 -1 26 87 87 78 131 126 105 106 100 113 153 138 184 195 147 97 58 50 68 52 165 207
58 52 45 35 -1 18 -1 -46 -14 -27 -9 78 104 146 233 266 214 187 201 171 211 195 182 206 218 313 303 134 -47 182 63 133
48 47 48 39 9 15 14 -15 -29 -45 -44 21 110 197 308 368 378 347 405 387 285 346 361 332 344 375 461 686 685 565 483 282
51 55 54 46 38 30 26 0 -15 -9 -8 3 4 146 187 414 527 523 540 524 438 444 498 498 467 380 379 412 716 991 927 593
48 58 55 51 31 23 12 29 13 20 7 -21 24 189 166 263 373 634 934 811 767 683 552 542 547 482 357 349 296 261 397 491
51 44 43 28 25 26 23 16 35 37 27 12 -26 100 166 142 193 349 631 743 856 823 562 556 456 436 419 363 252 314 221 339
51 36 33 28 28 23 13 3 -2 2 21 -8 -28 -10 -41 -2 52 127 253 252 348 499 514 441 415 388 353 317 377 563 531 262
58 38 26 29 38 33 19 -7 -17 -11 -17 -6 -14 -16 -19 -16 1 86 122 163 173 253 329 295 276 225 213 213 170 205 290 194
66 50 42 40 40 37 37 13 -5 -15 -14 -10 -6 -18 -11 -23 -7 3 33 90 150 157 177 144 128 180 156 109 173 159 117 114

GFSFLT1_con_3kmhel_138.txt.gz
Helicity
132 123 71 34 6 -0 -0 -14 -12 11 18 7 -4 -5 -42 1 35 -8 37 86 152 132 135 154 138 121 228 275 233 231 198 196
105 61 43 20 14 -8 -23 -47 -11 7 -27 -3 18 -4 24 21 50 83 85 148 182 161 148 169 221 154 48 226 233 238 197 225
108 75 28 3 -29 -24 -20 8 13 8 -5 23 1 -16 -6 -27 -54 51 83 145 204 216 195 189 224 168 64 109 217 227 198 225
51 32 13 -12 -15 -15 -3 19 35 23 29 -8 6 5 22 1 -43 12 68 118 170 241 194 162 201 316 165 228 183 185 210 212
9 34 51 2 8 8 18 28 19 25 10 -44 -59 -47 -33 57 66 55 112 122 130 157 216 183 205 282 201 149 195 230 206 215
47 25 3 1 3 -0 -15 -35 14 4 -10 -33 -17 -52 -21 -18 88 72 111 124 101 124 184 215 199 191 191 152 178 247 204 211
34 36 39 28 29 12 -50 -31 -21 -7 -3 -21 -28 -35 -10 37 24 95 70 113 201 195 199 257 243 198 154 108 50 179 288 115
61 48 20 42 59 -8 -23 -25 -33 -15 1 -11 -13 6 37 37 20 5 95 86 109 185 227 244 266 198 138 79 85 175 276 17
46 28 17 39 37 -3 -2 -21 -22 -20 -14 -2 13 31 39 32 65 56 47 47 35 183 203 251 297 238 152 98 77 136 152 203
48 47 32 42 34 12 -3 -43 -66 -78 -63 -57 -23 16 77 84 70 39 50 1 4 158 165 203 210 198 171 126 103 98 144 211
61 51 61 53 40 39 16 -42 -63 -86 -104 -119 -93 19 7 121 76 78 112 98 108 205 126 121 172 149 123 82 99 83 166 140
56 56 60 60 41 42 24 -3 -18 -45 -82 -117 -105 73 66 40 96 181 221 152 170 129 70 69 97 134 163 133 127 84 85 270
50 43 61 65 37 49 36 10 -6 -22 -34 -50 -71 -0 49 36 146 215 404 341 368 270 228 204 167 84 120 263 327 484 440 416
49 63 87 64 36 47 47 40 25 -2 -14 -18 -35 -61 -21 9 128 226 352 511 446 449 430 386 375 340 330 356 407 490 507 523
43 75 84 58 38 43 62 46 46 41 25 7 -13 -61 -33 -32 11 162 376 432 817 717 711 610 564 493 540 563 630 641 579 470
59 71 82 57 48 40 50 48 50 55 57 42 8 -15 -36 19 50 107 125 355 348 537 685 767 645 681 465 409 412 577 618 620
85 82 84 63 44 35 25 35 45 44 46 56 31 21 44 65 74 123 88 117 177 217 239 387 563 532 406 370 300 357 284 248
93 80 75 61 44 35 32 19 11 30 47 54 36 25 15 2 1 19 36 51 85 124 119 125 262 464 310 241 186 216 312 358
98 78 84 70 49 48 24 18 7 9 26 42 28 -6 -12 4 12 37 39 30 49 58 161 150 130 159 232 181 161 129 133 145